Location: 22
(39.7117°N, 89.5929°W)
Time: 20:06:37
(UTC-05:00)

Vanguard 3 - Pass Details

Date: 04 February 2023
Orbit: 508 x 3249 km, 33.4° (Epoch: 30 March)

Event Time Altitude Azimuth Distance (km) Brightness Sun altitude
Rises 22:32:58 0° 275° (W) 5,286 11.7 -57.9°
Reaches altitude 10° 22:36:00 10° 271° (W) 4,599 11.2 -58.4°
Enters shadow 22:41:02 30° 260° (W) 3,684 10.4 -59.1°
Maximum altitude 22:49:34 56° 199° (SSW) 3,240 - -60.2°
Drops below altitude 10° 23:08:29 10° 128° (SE) 6,181 - -62.5°
Sets 23:13:23 0° 125° (SE) 7,142 - -63.0°
